Tracking 28096 objects as of 28-Sep-2023
HD Live streaming from Space Station
objects crossing your sky now

FLOCK 4X 19

Track FLOCK 4X 19 now!
10-day predictions


NORAD ID: 51046
Int'l Code: 2022-002BQ
Perigee: 442.8 km
Apogee: 449.1 km
Inclination: 97.4 °
Period: 93.4 minutes
Semi major axis: 6816 km
RCS: Unknown
Launch date: January 13, 2022
Source: United States (US)
Launch site: AIR FORCE EASTERN TEST RANGE (AFETR)
Your satellite tracking list
Your tracking list is empty




NASA's NSSDC Master Catalog

Two Line Element Set (TLE):
1 51046U 22002BQ  23270.19184190  .00043775  00000-0  10079-2 0  9994
2 51046  97.4265 341.0278 0004631 200.4920 159.6142 15.42483183 94580
Source of the keplerian elements: AFSPC